Volver al catálogo

CZ-6A DEB

ActivoPO
NORAD 54996·DEBRIS·🇨🇳 China

Lanzado Nov 11, 2022 desde Taiyuan Satellite Launch Center

Loading…

Próximos Pases (próximas 24 horas)

TLE

ActualizadoSource: Space-Track

Época: Sep 14, 2026, 10:34 UTC

1 54996U 22151UM  26257.44027927  .00008196  00000-0  11117-2 0  9998
2 54996  98.6068 330.5072 0060680 346.5567  13.4022 14.77895526202581

Sigue CZ-6A DEB en tiempo real con AllMySat

Download on the App Store